Atuona, French Polynesia

09:09 MART le 19 février 2017 (GMT -0930)
Atuona

Météorologie Historique pour 91925 - février, 2017

Change the Weather History Date:

vendredi, février 17, 2017

  Actual Average Record
Temperature  
Température moyenne 82 ° F -  
Température maximum 88 ° F 88 ° F - ()
Température minimum 76 ° F 74 ° F - ()
Cooling Degree Days 17    
Growing Degree Days 32 (Base 50)    
Moisture  
Point de rosée 75 ° F    
Average Humidity 75    
Maximum Humidity 91    
Minimum Humidity 60    
Précipitation  
Précipitation 0.00 pouce 0.18 pouce - ()
Pression au niveau de la mer  
Pression au niveau de la mer 29.88 pouce    
Vent  
Vitesse du vent 3 mph ()    
Vitesse maximum du vent 16 mph    
Max Gust Speed -    
Visibilité 15.7 Miles terrestres    
Evénements      
T = Trace of Precipitation, MM = Missing Value Source: Averaged Metar Reports

Daily Weather History Graph

Daily Weather History Graph

Search for Another Location

Airport or City:

Trip Planner

Search our weather history database for the weather conditions in past years. The results will help you decide how hot, cold, wet, or windy it might be!

Date:

Astronomie

Feb. 17, 2017 Lever Coucher
Temps réel 05:48 MART 18:11 MART
Crépuscule civil 05:26 MART 18:33 MART
Crépuscule nautique 05:01 MART 18:58 MART
Crépuscule astronomique 04:36 MART 19:23 MART
Lune 23:18 MART (2/17) 11:14 MART (2/17)
Durée de lumière visible 13h 06m
Longueur du jour
12h 23m
Lune gibbeuse décroissante, 59% of the Moon is Illuminated
fév 17
Lune gibbeuse décroissante
fév 18
Dernier quartier
fév 26
Nouveau
Mar 5
Premier quartier
Mar 12
Pleine lune

Hourly Weather History & Observations

Heure (MART) Température Point de rosée Humidité Pression Visibilité Wind Dir Vitesse du vent Vitesse des rafales Precip Evénements Conditions météo
12:30 AM 78 ° F 72 ° F 75% 29.90 pouce - ONO 1.2 mph - -  
1:30 AM 78 ° F 73 ° F 80% 29.88 pouce - Calme Calme - -  
2:30 AM 78 ° F 72 ° F 77% 29.86 pouce - NNE 1.2 mph - -  
3:30 AM 76 ° F 71 ° F 81% 29.87 pouce - NNO 1.2 mph - -  
4:30 AM 76 ° F 71 ° F 78% 29.88 pouce - NO 2.3 mph - -  
5:30 AM 77 ° F 71 ° F 77% 29.89 pouce 22 mi ONO 2.3 mph - -   Nuageux
6:30 AM 77 ° F 72 ° F 81% 29.90 pouce - NE 3.5 mph - -  
7:30 AM 82 ° F 75 ° F 73% 29.92 pouce 22 mi Calme Calme - -   Nuageux
8:30 AM 83 ° F 74 ° F 69% 29.92 pouce 9 mi ESE 3.5 mph - -   Nuageux
9:30 AM 88 ° F 77 ° F 63% 29.91 pouce 19 mi ESE 6.9 mph - -   Nuageux
10:30 AM 88 ° F 78 ° F 65% 29.89 pouce - ESE 5.8 mph - -  
11:30 AM 87 ° F 77 ° F 65% 29.87 pouce 19 mi ESE 12.7 mph - -   Partiellement nuageux
12:30 PM 87 ° F 75 ° F 60% 29.84 pouce - ESE 16.1 mph - -  
1:30 PM 86 ° F 76 ° F 66% 29.83 pouce - ESE 13.8 mph - -  
2:30 PM 86 ° F 76 ° F 64% 29.82 pouce - Est 11.5 mph - -  
3:30 PM 85 ° F 75 ° F 66% 29.82 pouce - Est 11.5 mph - -  
4:30 PM 84 ° F 75 ° F 69% 29.82 pouce - Est 12.7 mph - -  
5:30 PM 83 ° F 76 ° F 73% 29.84 pouce - ESE 4.6 mph - -  
6:30 PM 82 ° F 77 ° F 81% 29.87 pouce - NE 1.2 mph - -  
7:30 PM 81 ° F 77 ° F 84% 29.88 pouce - NE 1.2 mph - -  
8:30 PM 80 ° F 76 ° F 85% 29.91 pouce - Calme Calme - -  
9:30 PM 79 ° F 76 ° F 89% 29.92 pouce - Calme Calme - -  
10:30 PM 78 ° F 76 ° F 91% 29.93 pouce - ONO 1.2 mph - -  
11:30 PM 77 ° F 74 ° F 87% 29.91 pouce - Calme Calme - -